FW4185 Weather Reports


Display with metric or nautical units.
time (UTC)temp
F
wind
direction
speed
MPH
gust
MPH
rain 1hr
in
rain 24hr
in
rain mn
in
humidity
%
barometer
mb
20260509181524 58 356 4.0 8.0 0.00 0.00 0.00 65 1004.5
20260509180843 60 354 0.0 0.0 0.00 0.00 0.00 63 1004.5
20260509180203 59 356 0.0 0.0 0.00 0.00 0.00 63 1004.6
20260509175523 0 356 0.0 7.0 0.00 0.00 0.00
20260509174622 58 354 4.0 7.0 0.00 0.00 0.00 66 1004.9
20260509173942 60 357 0.0 0.0 0.00 0.00 0.00 64 1005.2
20260509173301 58 355 0.0 0.0 0.00 0.00 0.00 66 1005.1
20260509172621 59 353 0.0 7.0 0.00 0.00 0.00 65 1005.1
20260509171946 60 357 0.0 6.0 0.00 0.00 0.00 62 1005.1
20260509171302 0 0 4.0 4.0 0.00 0.00 0.00
20260509170501 58 358 5.0 10.0 0.00 0.00 0.00 65 1005.2
20260509165821 60 354 2.0 7.0 0.00 0.00 0.00 64 1005.2
20260509165146 60 359 1.0 8.0 0.00 0.00 0.00 63 1005.1
20260509164502 59 357 3.0 8.0 0.00 0.00 0.00 65 1005.3
20260509163823 0 357 0.0 0.0 0.00 0.00 0.00
20260509163035 0 354 0.0 8.0 0.00 0.00 0.00
20260509162135 60 355 5.0 8.0 0.00 0.00 0.00 61 1005.4
20260509161456 60 355 0.0 0.0 0.00 0.00 0.00 62 1005.4
20260509160817 0 354 0.0 0.0 0.00 0.00 0.00
20260509160026 60 356 0.0 0.0 0.00 0.00 0.00 62 1005.4
20260509155346 59 357 0.0 0.0 0.00 0.00 0.00 62 1005.5
20260509154705 59 357 0.0 4.0 0.00 0.00 0.00 62 1005.6
20260509154026 0 350 0.0 6.0 0.00 0.00 0.00
20260509153201 59 357 0.0 0.0 0.00 0.00 0.00 63 1005.7
20260509152521 58 356 0.0 0.0 0.00 0.00 0.00 64 1005.7
20260509151841 58 356 0.0 0.0 0.00 0.00 0.00 63 1005.7
20260509151201 58 356 0.0 0.0 0.00 0.00 0.00 65 1005.7
20260509150521 57 356 0.0 0.0 0.00 0.00 0.00 64 1005.7
20260509145841 59 357 0.0 0.0 0.00 0.00 0.00 62 1005.6
20260509145202 57 357 0.0 5.0 0.00 0.00 0.00 66 1005.7
20260509144521 59 357 0.0 4.0 0.00 0.00 0.00 62 1005.8
20260509143841 57 357 0.0 6.0 0.00 0.00 0.00 65 1005.8
20260509143201 0 356 0.0 6.0 0.00 0.00 0.00
20260509142258 57 352 2.0 10.0 0.00 0.00 0.00 61 1005.8
20260509141618 57 356 5.0 10.0 0.00 0.00 0.00 62 1005.9
20260509140937 57 357 4.0 10.0 0.00 0.00 0.00 64 1006.0
20260509140258 56 356 7.0 10.0 0.00 0.00 0.00 65 1006.1
20260509135618 56 355 4.0 10.0 0.00 0.00 0.00 65 1006.1
20260509134938 56 355 4.0 10.0 0.00 0.00 0.00 65 1006.0
20260509134258 58 357 5.0 10.0 0.00 0.00 0.00 66 1006.1
20260509133619 57 355 5.0 10.0 0.00 0.00 0.00 67 1006.1
20260509132939 0 355 8.0 8.0 0.00 0.00 0.00
20260509132151 56 356 5.0 11.0 0.00 0.00 0.00 68 1006.2
20260509131510 56 357 3.0 6.0 0.00 0.00 0.00 68 1006.3
20260509130718 0 355 9.0 8.0 0.00 0.00 0.00
20260509125926 55 357 8.0 10.0 0.00 0.00 0.00 69 1006.4
20260509125248 0 353 6.0 8.0 0.00 0.00 0.00
20260509124457 55 356 7.0 14.0 0.00 0.00 0.00 68 1006.4
20260509123818 55 356 8.0 11.0 0.00 0.00 0.00 69 1006.5
20260509123138 54 358 8.0 11.0 0.00 0.00 0.00 70 1006.5
20260509122457 54 358 7.0 10.0 0.00 0.00 0.00 70 1006.5
20260509121817 54 355 4.0 10.0 0.00 0.00 0.00 72 1006.6
20260509121137 0 357 7.0 2.0 0.00 0.00 0.00
20260509120344 54 353 5.0 9.0 0.00 0.00 0.00 73 1006.7
20260509115704 53 357 3.0 8.0 0.00 0.00 0.00 72 1006.7
20260509115024 0 356 4.0 4.0 0.00 0.00 0.00
20260509114233 0 355 3.0 3.0 0.00 0.00 0.00
20260509113335 52 355 5.0 10.0 0.00 0.00 0.00 74 1006.7
20260509112653 52 356 3.0 9.0 0.00 0.00 0.00 74 1006.6
20260509112014 51 356 3.0 9.0 0.00 0.00 0.00 74 1006.7
20260509111333 51 356 5.0 8.0 0.00 0.00 0.00 75 1006.8
20260509110656 51 355 4.0 8.0 0.00 0.00 0.00 75 1006.8
20260509110014 0 357 4.0 4.0 0.00 0.00 0.00
20260509105111 50 357 4.0 9.0 0.00 0.00 0.00 75 1006.7
20260509104431 50 356 5.0 9.0 0.00 0.00 0.00 75 1006.7
20260509103751 0 356 4.0 9.0 0.00 0.00 0.00
20260509103001 50 357 3.0 7.0 0.00 0.00 0.00 75 1006.7
20260509102320 49 356 2.0 7.0 0.00 0.00 0.00 76 1006.8
20260509101641 49 355 3.0 7.0 0.00 0.00 0.00 77 1006.7
20260509101002 49 355 4.0 6.0 0.00 0.00 0.00 77 1006.7
20260509100321 0 357 0.0 5.0 0.00 0.00 0.00
20260509095530 48 356 2.0 5.0 0.00 0.00 0.00 76 1006.7
20260509094850 49 358 2.0 6.0 0.00 0.00 0.00 76 1006.6
20260509094210 49 357 2.0 2.0 0.00 0.00 0.00 76 1006.6
20260509093421 49 356 3.0 6.0 0.00 0.00 0.00 76 1006.6
20260509092746 49 357 2.0 7.0 0.00 0.00 0.00 75 1006.6
20260509092100 49 356 2.0 7.0 0.00 0.00 0.00 75 1006.6
20260509091421 49 357 4.0 7.0 0.00 0.00 0.00 74 1006.7
20260509090740 49 356 2.0 6.0 0.00 0.00 0.00 74 1006.7
20260509085158 0 355 4.0 7.0 0.00 0.00 0.00
20260509084407 0 358 2.0 5.0 0.00 0.00 0.00
20260509083618 49 357 3.0 8.0 0.00 0.00 0.00 71 1006.8
20260509082938 0 359 3.0 6.0 0.00 0.00 0.00
20260509081930 0 357 0.0 4.0 0.00 0.00 0.00
20260509081137 0 356 0.0 8.0 0.00 0.00 0.00
20260509080347 49 357 4.0 8.0 0.00 0.00 0.00 70 1006.8
20260509075708 49 357 2.0 8.0 0.00 0.00 0.00 69 1006.9
20260509075027 0 357 7.0 7.0 0.00 0.00 0.00
20260509074237 48 357 3.0 6.0 0.00 0.00 0.00 67 1007.1
20260509073557 47 356 3.0 6.0 0.00 0.00 0.00 67 1007.2
20260509072917 47 357 2.0 6.0 0.00 0.00 0.00 65 1007.3
20260509072236 47 357 0.0 0.0 0.00 0.00 0.00 64 1007.2
20260509071556 47 359 0.0 0.0 0.00 0.00 0.00 63 1007.4
20260509070918 48 359 0.0 6.0 0.00 0.00 0.00 62 1007.4
20260509070236 48 357 4.0 7.0 0.00 0.00 0.00 64 1007.4
20260509065556 48 358 1.0 6.0 0.00 0.00 0.00 62 1007.4
20260509064917 48 357 3.0 7.0 0.00 0.00 0.00 62 1007.5
20260509064236 48 356 4.0 9.0 0.00 0.00 0.00 61 1007.5
20260509063557 0 355 5.0 3.0 0.00 0.00 0.00
20260509062806 47 358 0.0 0.0 0.00 0.00 0.00 59 1007.5
20260509062126 47 357 0.0 0.0 0.00 0.00 0.00 59 1007.7
20260509061446 47 358 0.0 0.0 0.00 0.00 0.00 58 1007.8
20260509060805 46 357 0.0 6.0 0.00 0.00 0.00 56 1007.9
20260509060127 46 357 1.0 6.0 0.00 0.00 0.00 55 1007.9
20260509055447 46 358 0.0 0.0 0.00 0.00 0.00 55 1008.1
20260509054807 0 357 0.0 0.0 0.00 0.00 0.00
20260509053906 0 359 0.0 0.0 0.00 0.00 0.00
20260509053009 45 358 0.0 0.0 0.00 0.00 0.00 55 1008.4
20260509052328 46 357 0.0 0.0 0.00 0.00 0.00 56 1008.4
20260509051648 45 356 0.0 0.0 0.00 0.00 0.00 54 1008.5
20260509051008 45 357 0.0 5.0 0.00 0.00 0.00 55 1008.5
20260509050329 0 357 0.0 6.0 0.00 0.00 0.00
20260509045542 0 357 1.0 8.0 0.00 0.00 0.00
20260509044642 46 358 4.0 7.0 0.00 0.00 0.00 52 1008.7
20260509044002 0 357 2.0 4.0 0.00 0.00 0.00
20260509043211 46 357 5.0 9.0 0.00 0.00 0.00 52 1008.7
20260509042532 0 354 6.0 5.0 0.00 0.00 0.00
20260509041632 46 358 1.0 6.0 0.00 0.00 0.00 54 1008.9
20260509040952 0 356 1.0 5.0 0.00 0.00 0.00
20260509040201 45 357 1.0 4.0 0.00 0.00 0.00 54 1009.1
20260509035521 45 358 0.0 6.0 0.00 0.00 0.00 54 1009.1
20260509034841 0 357 2.0 7.0 0.00 0.00 0.00
20260509034052 46 356 2.0 6.0 0.00 0.00 0.00 52 1009.3
20260509033412 46 357 1.0 6.0 0.00 0.00 0.00 51 1009.4
20260509032732 46 356 2.0 6.0 0.00 0.00 0.00 51 1009.4
20260509032054 0 356 0.0 6.0 0.00 0.00 0.00
20260509031302 46 357 0.0 0.0 0.00 0.00 0.00 52 1009.6
20260509025829 46 358 0.0 0.0 0.00 0.00 0.08 51 1009.7
20260509025151 47 358 0.0 3.0 0.00 0.00 0.08 51 1009.7
20260509024510 47 357 0.0 6.0 0.00 0.00 0.08 50 1009.7
20260509023830 48 358 0.0 5.0 0.00 0.00 0.08 53 1009.7
20260509022821 48 356 0.0 4.0 0.00 0.00 0.08 45 1009.7
20260509022141 49 357 0.0 0.0 0.00 0.00 0.08 44 1009.6
20260509021501 49 358 0.0 0.0 0.00 0.00 0.08 42 1009.6
20260509020820 49 357 0.0 0.0 0.00 0.00 0.08 41 1009.6
20260509020143 0 357 0.0 0.0 0.00 0.00 0.08
20260509015318 50 360 0.0 0.0 0.00 0.00 0.08 40 1009.5
20260509014637 50 358 0.0 0.0 0.00 0.00 0.08 39 1009.4
20260509013957 50 358 0.0 0.0 0.00 0.00 0.08 37 1009.3
20260509013317 51 359 0.0 0.0 0.00 0.00 0.08 37 1009.3
20260509012638 51 358 0.0 0.0 0.00 0.00 0.08 38 1009.3
20260509011957 51 357 0.0 0.0 0.00 0.00 0.08 38 1009.2
20260509011318 0 358 0.0 0.0 0.00 0.00 0.08
20260509010302 0 357 0.0 0.0 0.00 0.00 0.08
20260509005511 0 358 0.0 0.0 0.00 0.00 0.08
20260509004721 0 358 0.0 0.0 0.00 0.00 0.08
20260509003931 0 358 0.0 0.0 0.00 0.00 0.08
20260509003029 52 358 0.0 0.0 0.00 0.00 0.08 42 1009.1
20260509002348 52 356 0.0 0.0 0.00 0.00 0.08 42 1009.0
20260509001709 52 358 0.0 0.0 0.00 0.00 0.08 39 1008.9
20260509001028 53 357 0.0 0.0 0.00 0.00 0.08 36 1009.0
20260509000348 53 357 0.0 0.0 0.00 0.00 0.08 33 1008.9
20260508235708 52 356 0.0 0.0 0.00 0.00 0.08 33 1008.9
20260508235028 53 358 0.0 0.0 0.00 0.00 0.08 33 1008.9
20260508234348 53 358 0.0 0.0 0.00 0.00 0.08 32 1008.8
20260508233709 0 357 0.0 0.0 0.00 0.00 0.08
20260508232919 53 356 0.0 0.0 0.00 0.00 0.08 30 1008.9
20260508232239 53 357 0.0 0.0 0.00 0.00 0.08 29 1008.9
20260508231600 54 359 0.0 0.0 0.00 0.00 0.08 34 1008.9
20260508230654 54 359 1.0 5.0 0.00 0.00 0.08 32 1008.9
20260508230015 0 357 0.0 5.0 0.00 0.00 0.08
20260508225224 54 357 0.0 0.0 0.00 0.00 0.08 33 1008.9
20260508224543 54 357 0.0 4.0 0.00 0.00 0.08 37 1008.9
20260508223904 54 358 1.0 4.0 0.00 0.00 0.08 38 1009.0
20260508223226 0 357 0.0 0.0 0.00 0.00 0.08
20260508222250 54 358 0.0 0.0 0.00 0.00 0.08 34 1009.1
20260508221610 56 357 0.0 0.0 0.00 0.00 0.08 37 1009.0
20260508220930 55 358 0.0 0.0 0.00 0.00 0.08 36 1009.1
20260508220251 0 358 0.0 6.0 0.00 0.00 0.08
20260508215502 55 357 1.0 6.0 0.00 0.00 0.08 34 1009.1
20260508214824 0 356 4.0 4.0 0.00 0.00 0.08
20260508214034 0 358 4.0 8.0 0.00 0.00 0.08
20260508213245 54 356 5.0 8.0 0.00 0.00 0.08 36 1009.1
20260508212605 0 357 4.0 5.0 0.00 0.00 0.08
20260508211816 0 357 4.0 5.0 0.00 0.00 0.08
20260508210808 53 356 5.0 9.0 0.00 0.00 0.08 35 1009.1
20260508210122 54 357 5.0 8.0 0.00 0.00 0.08 34 1009.2
20260508205442 0 356 6.0 8.0 0.00 0.00 0.08
20260508204654 0 359 1.0 5.0 0.00 0.00 0.08
20260508203530 0 356 0.0 0.0 0.00 0.00 0.08
20260508202629 0 357 0.0 0.0 0.00 0.00 0.08
20260508201835 0 358 0.0 0.0 0.00 0.00 0.08
20260508200935 0 359 0.0 5.0 0.00 0.00 0.08
20260508200144 52 357 1.0 6.0 0.00 0.00 0.08 52 1010.0
20260508195504 53 354 3.0 6.0 0.00 0.00 0.08 52 1010.0
20260508194824 53 358 4.0 6.0 0.00 0.00 0.08 46 1010.2
20260508194145 0 358 3.0 7.0 0.00 0.00 0.08
20260508193354 53 357 4.0 6.0 0.00 0.00 0.08 52 1010.3
20260508192715 0 356 5.0 3.0 0.00 0.00 0.08
20260508191924 54 354 4.0 7.0 0.00 0.00 0.08 49 1010.6
20260508191243 54 356 5.0 8.0 0.00 0.00 0.08 46 1010.7
20260508190604 54 355 5.0 8.0 0.00 0.00 0.08 47 1010.7
20260508185924 0 356 5.0 2.0 0.00 0.00 0.08
20260508185132 54 356 5.0 8.0 0.00 0.00 0.08 45 1010.8
20260508184453 52 357 5.0 8.0 0.00 0.00 0.08 50 1010.9
20260508183813 0 357 5.0 6.0 0.00 0.00 0.08
20260508183021 52 355 6.0 8.0 0.00 0.00 0.08 52 1011.0
20260508182347 52 356 5.0 8.0 0.00 0.00 0.08 53 1011.0
20260508181704 0 358 0.0 3.0 0.00 0.00 0.08